User: anonymous   Login
Location: Unspecified
(0.0000°N, 0.0000°E)
Time: 10:34:04
(UTC+00:00)
Language:

USA 113 - Orbit

View from above orbital plane
View from above orbital plane
View from above satellite
View from above satellite

Ground track
Ground track

The orbit data is extracted from the following two-line orbital elements,

1 23628U 95038A   18217.93640066 0.00000000  00000-0  00000-0 0    02
2 23628  10.7849  35.2231 0007842 138.7080 221.3671  1.00270000    08
Epoch (UTC): 05 August 2018 22:28:25
Eccentricity: 0.0007842
inclination: 10.7849°
perigee height: 35753 km
apogee height: 35820 km
right ascension of ascending node: 35.2231°
argument of perigee: 138.7080°
revolutions per day: 1.00270000
mean anomaly at epoch: 221.3671°
orbit number at epoch: 0

The dashed part of the orbit path shows where the satellite is in the earth's shadow,  

DLR